sat.trackr.live / text

‹ back to catalog

ION SCV-011

NORAD 56957 · 2023-084AB

PAYLOAD ACTIVE UNKNOWN

§ Identity

Operator
Country
IT
Launch date
2023-06-12
Launch site
AFWTR
Launch vehicle
Mass (kg)
RCS (m²)

External: N2YO · Heavens-Above · Gunter

§ Orbital elements

Epoch: 2026-09-21T18:36:56.684448Z

Period
94.14 min
Inclination
98.1356°
Eccentricity
0.0008339
Mean motion
15.29636270 rev/d
Perigee alt
471.2 km
Apogee alt
482.6 km
Semi-major
6,855.0 km
B*
1.1368e-4
RAAN
101.0731°
Arg perigee
66.0870°
Mean anomaly
294.1240°
Rev number
18,057

§ Raw data

ION SCV-0111 56957U 23084AB  26264.77565607  .00003177  00000+0  11368-3 0  99912 56957  98.1356 101.0731 0008339  66.0870 294.1240 15.29636270180573

JSON: /api/v1/satellites/56957 · /tle

For live sub-satellite position, see the globe view (requires WebGL).

§ Visibility from observer

Set your observer location to see the next 7 days of passes ≥ 10°. The values pass through the URL so the page stays shareable.

No JS? Fill the form by hand. The geolocation button needs JavaScript.

§ Radio — SatNOGS DB

ModeDescriptionDownlinkUplink
FM Mode S 2.265 GHz
FSK AX.100 Mode 5 Mode U - FSK1k2 AX.100 401.415 MHz

2 transmitters · refreshed weekly from db.satnogs.org